Location: Camps Bay
(33.9517°S, 18.3844°E)
Time: 21:36:37
(UTC+00:00)

deb Chang Zheng 4 - Pass Details

Date: 18 January 2020
Orbit: 606 x 627 km, 98.5° (Epoch: 17 February)

Event Time Altitude Azimuth Distance (km) Brightness Sun altitude
Exits shadow 01:10:06 48° 199° (SSW) 814 4.3 -26.8°
Drops below altitude 10° 01:13:15 10° 194° (SSW) 1,993 6.6 -26.4°
Sets 01:15:27 0° 193° (SSW) 2,903 7.6 -26.1°
